Find Starlink 32245

NORAD ID: 62133 Int'l Des: 2024-222 Owner: SPXS Country: US Constellation: starlink operational
LEOCIRCULAR

当前视图

正在加载3D地球...

About Starlink 32245

Starlink 32245 (NORAD 62133) is a starlink constellation satellite (v2 mini) launched Nov 27, 2024 by SPXS of US. It operates in LEO, CIRCULAR orbit with a mass of 730.00 kg.

即将过境

Passes for default location (London). Set your location on the main map for personalized predictions.

高度历史

Loading altitude history...

两行轨道根数

1 62133U 24222V 26248.27585464 .00004924 00000-0 18834-3 0 9996
2 62133 43.0009 202.0342 0001393 273.1493 86.9199 15.27577188100375
Epoch: Sep 5, 2026 • Age: 15 hours

当前状态

高度 482.4 km
远地点 / 近地点 N/A
速度 7.63 km/s
星下点 11.06°N, 59.66°E
发射日期 Nov 27, 2024
运行时间 1.7 years
类型 internet

技术详情

分类 Payload
质量 730.00 kg
干质量 700.00 kg
总质量 730.00 kg
长度 0.30 m
直径 4.10 m
跨度 29.00 m
形状 Box + pan
制造商 SPXS
平台类型 Starlink V2M
阶段状态 In Orbit
所有者/国家 SPXS/US

Most Searched